Weather in Borovoye

Russia / Altai Krai     54°01′51″N   81°11′12″E
temp.,
°C
wind,
m/s
gust,
m/s
humid.,
%
clouds,
%
prec.,
mm/h
press.,
hPa
HPBL,
m
6 march, sat
sat601:00−5sw91688100 1.6 1019981
04:00−6sw81686100 0.1 1019864
07:00−8ssw81685100 0.1 1018708
10:00−8ssw81784100 0.0 1016699
13:00−6ssw91786100 0.0 1014825
16:00−4sw91689100 0.3 1013993
19:00−3sw81587100 0.6 1012908
22:00−3sw71489100 0.1 1012762
7 march, sun
sun701:00−3sw61392100 0.2 1013721
04:00−4wsw41094100 0.4 1014641
07:00−8w2395100 0.4 101632
10:00−8w2487100 0.0 1018194
13:00−5wsw2580100 0.0 1019378
16:00−4wsw347799 0.0 1020545
19:00−7ssw228866 0.0 102121
22:00−9sse229393 0.0 102121
8 march, mon
mon801:00−5se369797 0.1 1020197
04:00−4s499599 0.1 1018398
07:00−7sse41095100 0.1 1016292
10:00−6s51189100 0.0 1014399
13:00−3s61284100 0.0 1011505
16:00−2ssw71580100 0.0 1008696
19:00−1sw71585100 0.0 10081029
22:00−2w8139296 0.4 10111005
9 march, tue
tue901:00−11wsw4129284 0.4 1017415
04:00−13wsw4109494 0.0 1021283
07:00−15sw3109595 0.0 1024249
10:00−14sw379022 0.0 1026276
13:00−11ssw368634 0.0 1027335
16:00−8ssw368824 0.0 1026375
19:00−10sse359552 0.0 1023117
22:00−13sse359542 0.0 102298
10 march, wed
wed1001:00−11sse389636 0.1 1018180
04:00−6s3796100 0.2 1016287
07:00−6ssw2397100 0.3 101586
10:00−5ssw3695100 0.0 1015236
13:00−3ssw3593100 0.1 1014394
16:00−2s1289100 0.0 1012344
19:00−2ese3795100 0.0 1008325
22:00−1se51392100 0.0 1004640